Date String (YYYY-MM-DD hh:mm:ss) UTC,Instrument flags,Ambient pressure (hPa),Sample flow (lpm),Bypass flow (lpm),Sample temperature (°C),Ambient temperature (°C),ASC tube jacket temperature (°C),LED temperature (°C),Box temperature (°C),Sample RH (%),Span deviation,Mass concentration (μg/m³),Mass concentration (μg/m³),Mass concentration (μg/m³)
DateTimeUTC,F1_M11,P_M11,Q1_M11,Q2_M11,T1_M11,T2_M11,T3_M11,T4_M11,T5_M11,U1_M11,ZSPAN_M11,X0_M11,X2_M11,X1_M11
2021-12-30 12:00:00,,0812.2,5.00,0.00,22.1,23.1,00.0,30.9,24.0,09.6,0000.0,0004.28,0001.07,0000.70
2021-12-30 12:01:00,,0812.2,5.00,0.00,22.2,23.0,00.0,31.0,24.1,09.5,0000.0,0003.09,0001.04,0000.69
2021-12-30 12:02:00,,0812.2,5.00,0.00,22.2,22.6,00.0,31.0,24.0,09.1,0000.0,0003.03,0001.02,0000.67
2021-12-30 12:03:00,,0812.2,5.01,0.00,22.1,22.3,00.0,31.0,23.8,08.9,0000.0,0003.32,0000.96,0000.61
2021-12-30 12:04:00,,0812.4,4.99,0.00,22.0,22.0,00.0,31.0,23.6,08.9,0000.0,0004.04,0000.90,0000.55
2021-12-30 12:05:00,,0812.4,5.00,0.00,22.0,21.7,00.0,31.0,23.5,09.3,0000.0,0004.00,0000.87,0000.51
2021-12-30 12:06:00,,0812.4,4.99,0.00,21.9,21.5,00.0,31.0,23.4,09.6,0000.0,0003.98,0000.85,0000.50
2021-12-30 12:07:00,,0812.4,5.00,0.00,21.8,21.4,00.0,31.0,23.3,09.7,0000.0,0003.66,0000.84,0000.49
2021-12-30 12:08:00,,0812.4,5.01,0.00,21.8,21.2,00.0,30.9,23.3,09.7,0000.0,0002.91,0000.81,0000.49
2021-12-30 12:09:00,,0812.3,4.99,0.00,21.8,21.2,00.0,30.9,23.3,09.7,0000.0,0002.97,0000.81,0000.48
2021-12-30 12:10:00,,0812.3,5.01,0.00,21.8,21.2,00.0,30.9,23.3,09.7,0000.0,0002.71,0000.82,0000.48
2021-12-30 12:11:00,,0812.4,5.00,0.00,21.8,21.1,00.0,30.9,23.4,09.7,0000.0,0003.23,0000.80,0000.47
2021-12-30 12:12:00,,0812.4,4.99,0.00,21.8,21.1,00.0,30.9,23.4,09.7,0000.0,0003.26,0000.75,0000.45
2021-12-30 12:13:00,,0812.5,4.99,0.00,21.8,21.1,00.0,30.9,23.4,09.7,0000.0,0003.16,0000.71,0000.45
2021-12-30 12:14:00,,0812.5,5.02,0.00,21.7,21.1,00.0,30.9,23.3,09.4,0000.0,0002.86,0000.70,0000.45
2021-12-30 12:15:00,,0812.4,4.98,0.00,21.7,21.1,00.0,30.8,23.3,09.3,0000.0,0002.01,0000.74,0000.47
2021-12-30 12:16:00,,0812.3,4.99,0.00,21.7,21.1,00.0,30.8,23.3,09.4,0000.0,0002.08,0000.74,0000.47
2021-12-30 12:17:00,,0812.3,5.00,0.00,21.8,21.8,00.0,30.9,23.5,09.4,0000.0,0002.05,0000.71,0000.46
2021-12-30 12:18:00,,0812.4,4.99,0.00,21.9,22.7,00.0,30.9,23.9,09.2,0000.0,0002.21,0000.70,0000.43
2021-12-30 12:19:00,,0812.4,4.99,0.00,22.1,23.1,00.0,31.0,24.1,09.2,0000.0,0002.27,0000.69,0000.41
2021-12-30 12:20:00,,0812.4,5.00,0.00,22.1,22.8,00.0,31.0,24.0,09.2,0000.0,0002.10,0000.63,0000.40
2021-12-30 12:21:00,,0812.3,5.02,0.00,22.1,22.5,00.0,31.0,23.9,09.1,0000.0,0002.23,0000.63,0000.38
2021-12-30 12:22:00,,0812.4,5.00,0.00,22.1,22.2,00.0,31.0,23.8,09.2,0000.0,0001.61,0000.62,0000.37
2021-12-30 12:23:00,,0812.4,4.99,0.00,22.0,22.0,00.0,31.0,23.7,09.3,0000.0,0001.62,0000.64,0000.36
2021-12-30 12:24:00,,0812.2,5.01,0.00,22.0,21.7,00.0,31.0,23.6,09.1,0000.0,0001.66,0000.64,0000.35
2021-12-30 12:25:00,,0812.1,4.99,0.00,21.9,21.5,00.0,31.0,23.5,08.9,0000.0,0001.75,0000.64,0000.34
2021-12-30 12:26:00,,0812.2,5.01,0.00,21.9,21.3,00.0,31.0,23.4,08.9,0000.0,0002.51,0000.61,0000.32
2021-12-30 12:27:00,,0812.2,4.99,0.00,21.8,21.2,00.0,30.9,23.3,08.9,0000.0,0002.39,0000.59,0000.31
2021-12-30 12:28:00,,0812.2,5.00,0.00,21.8,21.1,00.0,30.9,23.3,09.0,0000.0,0002.33,0000.57,0000.30
2021-12-30 12:29:00,,0812.2,5.00,0.00,21.7,20.9,00.0,30.9,23.2,09.1,0000.0,0002.21,0000.58,0000.30
2021-12-30 12:30:00,,0812.2,5.01,0.00,21.7,20.9,00.0,30.9,23.1,09.1,0000.0,0002.11,0000.54,0000.29
2021-12-30 12:31:00,,0812.2,5.01,0.00,21.6,20.8,00.0,30.8,23.1,09.3,0000.0,0002.20,0000.57,0000.29
2021-12-30 12:32:00,,0812.1,4.99,0.00,21.6,20.9,00.0,30.8,23.1,09.3,0000.0,0002.25,0000.58,0000.30
2021-12-30 12:33:00,,0812.2,5.01,0.00,21.7,21.6,00.0,30.8,23.3,09.3,0000.0,0002.24,0000.57,0000.30
2021-12-30 12:34:00,,0812.2,4.99,0.00,21.8,22.6,00.0,30.9,23.7,09.3,0000.0,0002.23,0000.58,0000.30
2021-12-30 12:35:00,,0812.2,5.00,0.00,22.0,23.1,00.0,30.9,24.0,09.2,0000.0,0002.83,0000.58,0000.30
2021-12-30 12:36:00,,0812.2,4.99,0.00,22.1,22.9,00.0,30.9,24.0,09.1,0000.0,0002.90,0000.61,0000.32
2021-12-30 12:37:00,,0812.2,5.01,0.00,22.1,22.6,00.0,31.0,23.9,09.1,0000.0,0002.20,0000.64,0000.35
2021-12-30 12:38:00,,0812.2,4.99,0.00,22.1,22.3,00.0,31.0,23.9,09.1,0000.0,0002.60,0000.71,0000.37
2021-12-30 12:39:00,,0812.1,4.99,0.00,22.1,22.1,00.0,31.0,23.8,09.1,0000.0,0002.76,0000.75,0000.40
2021-12-30 12:40:00,,0812.1,5.00,0.00,22.0,21.9,00.0,31.0,23.7,09.0,0000.0,0003.09,0000.80,0000.42
2021-12-30 12:41:00,,0812.2,5.01,0.00,22.0,21.7,00.0,31.0,23.6,09.0,0000.0,0003.39,0000.86,0000.44
2021-12-30 12:42:00,,0812.1,5.00,0.00,22.0,21.6,00.0,31.0,23.6,09.0,0000.0,0003.62,0000.89,0000.45
2021-12-30 12:43:00,,0812.2,4.99,0.00,21.9,21.5,00.0,31.0,23.5,09.0,0000.0,0003.45,0000.87,0000.45
2021-12-30 12:44:00,,0812.2,5.00,0.00,21.9,21.4,00.0,31.0,23.5,09.0,0000.0,0003.33,0000.84,0000.45
2021-12-30 12:45:00,,0812.2,5.00,0.00,21.9,21.3,00.0,31.0,23.4,09.0,0000.0,0003.35,0000.85,0000.45
2021-12-30 12:46:00,,0812.3,5.00,0.00,21.8,21.1,00.0,30.9,23.3,09.1,0000.0,0002.85,0000.88,0000.47
2021-12-30 12:47:00,,0812.3,5.01,0.00,21.8,21.0,00.0,30.9,23.3,09.1,0000.0,0002.82,0000.89,0000.47
2021-12-30 12:48:00,,0812.3,5.00,0.00,21.7,21.0,00.0,30.9,23.2,09.1,0000.0,0002.80,0000.87,0000.46
2021-12-30 12:49:00,,0812.2,5.00,0.00,21.7,20.9,00.0,30.9,23.2,09.0,0000.0,0003.19,0000.83,0000.44
2021-12-30 12:50:00,,0812.2,5.01,0.00,21.7,20.9,00.0,30.8,23.2,08.9,0000.0,0003.18,0000.81,0000.42
2021-12-30 12:51:00,,0812.1,5.00,0.00,21.7,20.9,00.0,30.8,23.2,09.0,0000.0,0003.42,0000.75,0000.40
2021-12-30 12:52:00,,0812.1,4.99,0.00,21.6,20.9,00.0,30.8,23.2,09.0,0000.0,0003.58,0000.70,0000.38
2021-12-30 12:53:00,,0812.1,5.00,0.00,21.6,21.1,00.0,30.8,23.3,09.0,0000.0,0003.36,0000.63,0000.37
2021-12-30 12:54:00,,0812.1,5.00,0.00,21.8,22.0,00.0,30.8,23.5,08.9,0000.0,0003.31,0000.63,0000.36
2021-12-30 12:55:00,,0812.2,4.99,0.00,21.9,22.9,00.0,30.9,23.9,08.8,0000.0,0003.32,0000.64,0000.34
2021-12-30 12:56:00,,0812.1,4.99,0.00,22.1,23.2,00.0,30.9,24.1,08.7,0000.0,0003.26,0000.61,0000.32
2021-12-30 12:57:00,,0812.1,5.02,0.00,22.1,22.8,00.0,30.9,24.0,08.7,0000.0,0003.19,0000.53,0000.28
2021-12-30 12:58:00,,0812.1,5.00,0.00,22.1,22.5,00.0,31.0,23.9,08.7,0000.0,0004.07,0000.49,0000.27
2021-12-30 12:59:00,,0812.1,4.99,0.00,22.1,22.2,00.0,31.0,23.8,08.7,0000.0,0004.78,0000.48,0000.25
